STARLINK-30301, 57666

Orbit data source: Space-Track

STARLINK-30301, 57666 is a payload satellite owned by SpaceX/Seattle (US) in LEO that was launched on Tue, 22 Aug 2023 UTC via an FALCON 9 launch vehicle from the Air Force Western Test Range (AFWTR). Payload-class satellites include a variety of spacecraft equipped with specific instruments for various scientific and technological missions. These include communications satellites like Starlink; space stations such as the ISS; scientific satellites like the Hubble; Earth observation satellites from companies like Planet Labs, Umbra, and HawkEye 360; GPS; miniature CubeSats for education and research; and military/defense satellites.

Loading next visibility...
Identifier
57666, 2023-124D
Orbit
LEO
Country
Flag of USUS
Related business
Manufacturer
SpaceX/Seattle
Mission
Partially operational Commercial Communications
Bus & Motor
STARLINK V2M, Unknown motor
Mass
730 kg wet, ~700 kg dry
Launch date (UTC)
2023-08-22 (3 years ago)
Launch vehicle
FALCON 9
Launch site
Air Force Western Test Range (AFWTR)
Object type
Payload
Rocket body
Debris
Shape & HBR
Box + 2 Pan, 17.7 m
Radar Cross Section
33.884 m², Large (>1 m²)

Expand to show TLE details & history
Last TLE update: 2 days ago

TLE from 2 days ago
0 STARLINK-30301
1 57666U 23124D   26171.21874806  .00009938  00000-0  31296-3 0  9998
2 57666  53.1594 151.4395 0002678  50.6716 309.4523 15.33563302158387
Epoch: 2026-06-20T05:14Z
TLE epoch observation values (Epoch: 2026-06-20T05:14:59.832Z)
Latitude
-0.00004°
Longitude
164.25365°
Altitude
464.928 km
Speed
7.636 km/s
True Right ascension
10h 05m 45s
True Declination
0° 00' 00"
Sunlit
Object was in daylight at epoch
Visualization orbit readout
Latitude
Unknown
Longitude
Unknown
Altitude
Unknown
Speed
Unknown
Apparent Right ascension
Unknown
Apparent Declination
Unknown
Sunlit
N/A
Visualization observer readout
Local Sidereal Time
21:29:00
Azimuth
Unknown
Elevation
Unknown
Doppler factor
Unknown
Orbital elements
Apogee altitude
467.281 km
Perigee altitude
463.615 km
Semi-major axis
6,843.585 km
Eccentricity
0.00027
Inclination
53.1594°
RAAN
151.4395°
Arg. of periapsis
50.6716°
True anomaly
309.4286°
Mean anomaly
309.4523°
Eccentric anomaly
309.44045°
Mean motion
3.8337 °/min
Orbital period
93.9 mins
BSTAR
0.00031296
Loading maneuver chart data...
Computing Atmospheric mass density...
Loading historical data...
Loading historical data...
Loading historical data...
Loading historical data...
Loading historical data...
Loading historical data...
Loading historical data...

Documentation

Showing up to 5 results
|